Location: Observatoire
(46.1952°N, 5.3391°E)
Time: 07:39:40
(UTC+02:00)

ZACube-1 - Visible Passes

Search period start: 16 April 2024 00:00
Search period end: 26 April 2024 00:00
Orbit: 567 x 639 km, 97.7° (Epoch: 15 April)

Date Brightness Start Highest point End Pass type
(mag) Time Alt. Az. Time Alt. Az. Time Alt. Az.
16 Apr ? 04:37:36 10° NNE 04:41:57 75° ESE 04:43:41 36° S visible
16 Apr ? 06:15:03 10° NNW 06:17:11 14° WNW 06:19:20 10° W visible
17 Apr ? 03:16:43 10° ENE 03:17:43 11° E 03:18:44 10° E visible
17 Apr ? 04:49:42 10° NNE 04:54:03 83° WNW 04:56:02 32° SSW visible
18 Apr ? 03:27:32 10° NE 03:29:56 14° E 03:31:33 12° ESE visible
18 Apr ? 05:01:49 10° N 05:06:06 62° WNW 05:08:22 27° SW visible
19 Apr ? 03:39:00 10° NE 03:42:08 19° E 03:43:52 15° ESE visible
19 Apr ? 05:13:57 10° N 05:18:08 47° WNW 05:20:41 22° SW visible
20 Apr ? 03:50:40 10° NE 03:54:17 25° E 03:56:10 19° SE visible
20 Apr ? 05:26:08 10° N 05:30:07 36° WNW 05:32:58 17° SW visible
21 Apr ? 04:02:26 10° NNE 04:06:23 32° E 04:08:26 22° SE visible
21 Apr ? 05:38:21 10° N 05:42:04 28° WNW 05:45:15 13° WSW visible
22 Apr ? 04:14:16 10° NNE 04:18:28 43° E 04:20:41 24° SSE visible
22 Apr ? 05:50:37 10° NNW 05:53:58 22° WNW 05:57:21 10° WSW visible
23 Apr ? 04:26:08 10° NNE 04:30:30 57° E 04:32:55 25° S visible
23 Apr ? 06:02:59 10° NNW 06:05:51 17° WNW 06:08:43 10° WSW visible
24 Apr ? 04:38:04 10° NNE 04:42:29 76° ESE 04:45:07 24° S visible
25 Apr ? 03:16:48 10° ENE 03:18:07 11° E 03:19:24 10° ESE visible
25 Apr ? 04:50:01 10° N 04:54:26 81° WNW 04:57:19 22° SSW visible
